Weather History for KOCQ - October, 2013

Change the Weather History Date:

Monday, October 28, 2013

  Actual Average Record
Temperature  
Mean Temperature 34 °F -  
Max Temperature 41 °F 55 °F 53 °F (2014)
Min Temperature 26 °F 34 °F 26 °F (2013)
Degree Days  
Heating Degree Days 32    
Moisture  
Dew Point 24 °F    
Average Humidity 66    
Maximum Humidity 85    
Minimum Humidity 48    
Precipitation  
Precipitation 0.00 in - - ()
Sea Level Pressure  
Sea Level Pressure 30.37 in    
Wind  
Wind Speed 10 mph (NNE)    
Max Wind Speed 16 mph    
Max Gust Speed 24 mph    
Visibility 10 miles    
Events      
Averages and records for this station are not official NWS values.
T = Trace of Precipitation, MM = Missing Value Source: NWS Daily Summary

Daily Weather History Graph

Daily Weather History Graph

Search for Another Location

Airport or City:

Trip Planner

Search our weather history database for the weather conditions in past years. The results will help you decide how hot, cold, wet, or windy it might be!

Date:

Astronomy

Oct. 28, 2013 Rise Set
Actual Time 7:24 AM CDT 5:45 PM CDT
Civil Twilight 6:54 AM CDT 6:15 PM CDT
Nautical Twilight 6:20 AM CDT 6:50 PM CDT
Astronomical Twilight 5:46 AM CDT 7:23 PM CDT
Moon 1:02 AM CDT (10/28) 2:40 PM CDT (10/28)
Length of Visible Light 11h 21m
Length of Day
10h 20m
Waning Crescent, 34% of the Moon is Illuminated
Oct 28
Waning Crescent
Nov 3
New
Nov 9
First Quarter
Nov 17
Full
Nov 25
Last Quarter

Hourly Weather History & Observations

Time (CDT) Temp. Windchill Dew Point Humidity Pressure Visibility Wind Dir Wind Speed Gust Speed Precip Events Conditions
12:15 AM 41.9 °F 34.6 °F 32.0 °F 68% 30.09 in 10.0 mi North 13.8 mph 19.6 mph N/A   Overcast
12:35 AM 41.5 °F 34.2 °F 32.0 °F 69% 30.10 in 10.0 mi NNE 13.8 mph 18.4 mph N/A   Overcast
12:55 AM 41.2 °F 34.5 °F 32.0 °F 70% 30.11 in 10.0 mi North 11.5 mph 19.6 mph N/A   Overcast
1:15 AM 41.0 °F 32.8 °F 31.3 °F 68% 30.14 in 10.0 mi NNE 16.1 mph 24.2 mph N/A   Overcast
1:55 AM 39.4 °F 31.8 °F 29.7 °F 68% 30.17 in 10.0 mi NNE 12.7 mph 21.9 mph N/A   Overcast
2:15 AM 38.3 °F 30.9 °F 28.8 °F 69% 30.18 in 10.0 mi NNE 11.5 mph 20.7 mph N/A   Overcast
2:35 AM 37.8 °F 29.8 °F 28.4 °F 69% 30.20 in 10.0 mi NNE 12.7 mph 23.0 mph N/A   Overcast
2:55 AM 37.4 °F 28.2 °F 28.0 °F 69% 30.20 in 10.0 mi NNE 16.1 mph 21.9 mph N/A   Overcast
3:15 AM 36.7 °F 28.4 °F 27.9 °F 70% 30.21 in 10.0 mi NNE 12.7 mph 24.2 mph N/A   Overcast
3:35 AM 36.0 °F 28.0 °F 27.3 °F 71% 30.22 in 10.0 mi NNE 11.5 mph 18.4 mph N/A   Overcast
3:55 AM 35.1 °F 27.9 °F 27.3 °F 73% 30.23 in 10.0 mi North 9.2 mph 18.4 mph N/A   Overcast
4:15 AM 34.3 °F 27.7 °F 27.1 °F 75% 30.24 in 10.0 mi North 8.1 mph - N/A   Mostly Cloudy
4:35 AM 33.4 °F 27.3 °F 27.0 °F 77% 30.26 in 10.0 mi North 6.9 mph - N/A   Scattered Clouds
4:55 AM 32.9 °F 26.7 °F 26.6 °F 78% 30.26 in 10.0 mi North 6.9 mph - N/A   Clear
5:15 AM 32.4 °F 26.0 °F 26.6 °F 79% 30.28 in 10.0 mi North 6.9 mph - N/A   Clear
5:35 AM 32.0 °F 24.8 °F 26.6 °F 80% 30.29 in 10.0 mi North 8.1 mph - N/A   Clear
5:55 AM 32.0 °F 25.6 °F 27.0 °F 82% 30.30 in 10.0 mi North 6.9 mph - N/A   Clear
6:15 AM 31.8 °F 24.6 °F 27.0 °F 82% 30.30 in 10.0 mi North 8.1 mph - N/A   Scattered Clouds
6:35 AM 32.0 °F 25.6 °F 27.3 °F 83% 30.31 in 10.0 mi North 6.9 mph - N/A   Mostly Cloudy
6:55 AM 32.0 °F 24.2 °F 27.3 °F 83% 30.32 in 10.0 mi NNE 9.2 mph - N/A   Overcast
7:15 AM 32.0 °F 24.8 °F 26.6 °F 80% 30.33 in 10.0 mi North 8.1 mph - N/A   Overcast
7:35 AM 31.6 °F 23.7 °F 25.5 °F 78% 30.34 in 10.0 mi North 9.2 mph - N/A   Scattered Clouds
7:55 AM 31.5 °F 22.9 °F 24.8 °F 76% 30.35 in 10.0 mi North 10.4 mph 17.3 mph N/A   Scattered Clouds
8:15 AM 32.0 °F 23.6 °F 24.4 °F 74% 30.37 in 10.0 mi North 10.4 mph 16.1 mph N/A   Overcast
8:35 AM 32.0 °F 24.2 °F 24.3 °F 73% 30.38 in 10.0 mi North 9.2 mph - N/A   Mostly Cloudy
8:55 AM 33.6 °F 25.0 °F 24.3 °F 69% 30.39 in 10.0 mi NNE 11.5 mph 19.6 mph N/A   Mostly Cloudy
9:15 AM 33.3 °F 26.4 °F 23.7 °F 68% 30.39 in 10.0 mi North 8.1 mph 16.1 mph N/A   Overcast
9:35 AM 34.2 °F 25.2 °F 23.9 °F 66% 30.40 in 10.0 mi NNE 12.7 mph 17.3 mph N/A   Scattered Clouds
9:55 AM 35.6 °F 27.5 °F 24.1 °F 63% 30.41 in 10.0 mi NNE 11.5 mph 16.1 mph N/A   Mostly Cloudy
10:15 AM 36.5 °F 29.7 °F 24.4 °F 62% 30.42 in 10.0 mi NNE 9.2 mph - N/A   Scattered Clouds
10:35 AM 36.7 °F 28.9 °F 24.3 °F 61% 30.43 in 10.0 mi NNE 11.5 mph 16.1 mph N/A   Scattered Clouds
10:55 AM 38.7 °F 30.5 °F 23.7 °F 55% 30.44 in 10.0 mi NE 13.8 mph 21.9 mph N/A   Scattered Clouds
11:15 AM 38.5 °F 30.7 °F 21.0 °F 50% 30.44 in 10.0 mi NE 12.7 mph 19.6 mph N/A   Scattered Clouds
11:35 AM 38.8 °F 33.2 °F 21.4 °F 50% 30.44 in 10.0 mi NE 8.1 mph 18.4 mph N/A   Scattered Clouds
11:55 AM 39.7 °F 32.3 °F 23.0 °F 51% 30.45 in 10.0 mi NE 12.7 mph 17.3 mph N/A   Mostly Cloudy
12:15 PM 39.4 °F 31.8 °F 23.5 °F 53% 30.45 in 10.0 mi NE 12.7 mph 16.1 mph N/A   Scattered Clouds
12:35 PM 39.6 °F 32.5 °F 23.0 °F 52% 30.44 in 10.0 mi NE 11.5 mph 16.1 mph N/A   Clear
12:55 PM 39.4 °F 31.8 °F 23.2 °F 52% 30.44 in 10.0 mi NE 12.7 mph 19.6 mph N/A   Scattered Clouds
1:15 PM 39.4 °F 33.2 °F 23.0 °F 52% 30.44 in 10.0 mi ENE 9.2 mph 20.7 mph N/A   Scattered Clouds
1:35 PM 39.4 °F 32.3 °F 23.4 °F 53% 30.43 in 10.0 mi NE 11.5 mph 16.1 mph N/A   Scattered Clouds
1:55 PM 39.4 °F 32.7 °F 23.4 °F 53% 30.42 in 10.0 mi ENE 10.4 mph 18.4 mph N/A   Clear
2:15 PM 39.9 °F 32.5 °F 23.4 °F 52% 30.42 in 10.0 mi East 12.7 mph - N/A   Clear
2:35 PM 40.1 °F 34.1 °F 23.0 °F 51% 30.42 in 10.0 mi NE 9.2 mph 16.1 mph N/A   Scattered Clouds
2:55 PM 39.9 °F 35.1 °F 21.7 °F 48% 30.42 in 10.0 mi NE 6.9 mph - N/A   Clear
3:15 PM 39.6 °F 34.0 °F 22.1 °F 50% 30.42 in 10.0 mi ENE 8.1 mph - N/A   Clear
3:35 PM 39.7 °F 33.7 °F 22.3 °F 50% 30.42 in 10.0 mi East 9.2 mph - N/A   Clear
3:55 PM 39.6 °F 34.0 °F 21.7 °F 49% 30.43 in 10.0 mi East 8.1 mph - N/A   Clear
4:15 PM 39.0 °F 32.8 °F 21.0 °F 49% 30.43 in 10.0 mi ENE 9.2 mph - N/A   Clear
4:35 PM 38.5 °F 32.7 °F 21.9 °F 51% 30.43 in 10.0 mi East 8.1 mph - N/A   Clear
4:55 PM 38.3 °F 33.9 °F 21.9 °F 52% 30.42 in 10.0 mi ENE 5.8 mph - N/A   Clear
5:15 PM 37.6 °F 33.1 °F 20.5 °F 50% 30.42 in 10.0 mi ENE 5.8 mph - N/A   Clear
5:35 PM 36.7 °F 32.9 °F 20.3 °F 52% 30.42 in 10.0 mi NE 4.6 mph - N/A   Clear
5:55 PM 35.6 °F 32.8 °F 19.9 °F 53% 30.43 in 10.0 mi NE 3.5 mph - N/A   Clear
6:15 PM 35.2 °F - 19.9 °F 54% 30.43 in 10.0 mi Calm Calm - N/A   Clear
6:35 PM 31.6 °F - 20.1 °F 62% 30.44 in 10.0 mi Calm Calm - N/A   Clear
6:55 PM 27.5 °F - 20.3 °F 74% 30.45 in 10.0 mi Calm Calm - N/A   Clear
7:15 PM 28.0 °F - 20.3 °F 73% 30.45 in 10.0 mi Calm Calm - N/A   Clear
7:35 PM 27.5 °F - 19.6 °F 72% 30.45 in 10.0 mi Calm Calm - N/A   Clear
7:55 PM 26.8 °F - 19.8 °F 75% 30.45 in 10.0 mi Calm Calm - N/A   Clear
8:15 PM 26.4 °F - 22.5 °F 85% 30.45 in 10.0 mi Calm Calm - N/A   Scattered Clouds
8:35 PM 26.2 °F - 22.3 °F 85% 30.45 in 10.0 mi Calm Calm - N/A   Overcast
8:55 PM 27.3 °F - 23.2 °F 84% 30.45 in 10.0 mi Calm Calm - N/A   Mostly Cloudy
9:15 PM 29.5 °F - 23.2 °F 77% 30.45 in 10.0 mi Calm Calm - N/A   Mostly Cloudy
9:35 PM 30.6 °F - 22.5 °F 72% 30.45 in 10.0 mi Calm Calm - N/A   Overcast
9:55 PM 30.9 °F 27.5 °F 21.7 °F 69% 30.45 in 10.0 mi NNE 3.5 mph - N/A   Overcast
10:15 PM 30.2 °F - 21.2 °F 69% 30.45 in 10.0 mi Calm Calm - N/A   Mostly Cloudy
10:35 PM 30.2 °F 26.7 °F 21.9 °F 71% 30.46 in 10.0 mi NNE 3.5 mph - N/A   Mostly Cloudy
10:55 PM 30.0 °F 25.2 °F 22.1 °F 72% 30.46 in 10.0 mi NNE 4.6 mph - N/A   Mostly Cloudy
11:15 PM 28.9 °F 25.2 °F 21.9 °F 75% 30.45 in 10.0 mi North 3.5 mph - N/A   Scattered Clouds
11:35 PM 28.2 °F 22.0 °F 22.1 °F 78% 30.46 in 10.0 mi NNE 5.8 mph - N/A   Clear
11:55 PM 27.9 °F 24.0 °F 21.9 °F 78% 30.46 in 10.0 mi North 3.5 mph - N/A   Clear